Temperature
17 17 17 17 18 18 18 18 18 18 18 18 18 18 18 17 17 17 17 16 16 16 16 16 16 16 16 15 15 15 15 15 15 15 15 15 15 14
17 17 17 17 17 17 18 18 18 18 18 18 18 18 18 17 17 17 16 16 16 16 16 16 16 16 16 16 16 15 15 15 15 15 15 15 15 14
16 16 17 17 17 17 17 17 17 17 17 18 18 17 17 17 17 17 16 16 16 16 16 16 16 16 16 15 15 15 15 15 15 15 15 14 14 14
16 16 16 16 16 17 17 17 17 17 17 17 17 17 17 17 17 16 16 16 16 16 16 16 16 16 15 15 15 15 15 15 15 15 14 14 14 14
16 16 16 16 16 16 16 16 16 16 16 16 16 16 16 16 16 16 16 15 15 16 16 16 15 15 15 15 15 15 15 14 14 14 14 14 14 14
16 16 16 16 16 16 16 16 16 16 16 16 16 16 16 16 16 15 15 15 15 15 15 15 15 15 15 15 14 14 14 14 14 14 14 13 13 13
15 15 15 15 15 15 15 15 15 15 15 15 15 15 15 15 15 15 15 15 15 15 15 15 14 14 14 14 14 14 13 13 13 13 13 13 13 13
15 15 15 15 15 15 15 15 15 15 15 15 14 14 14 14 14 14 14 14 14 14 14 14 14 14 13 13 13 13 13 13 13 12 12 12 12 12
15 15 14 14 14 14 14 14 14 14 14 14 14 14 13 13 13 13 13 13 13 13 13 13 13 13 13 13 12 12 12 12 12 12 11 11 11 11
14 14 14 14 14 14 14 13 13 13 13 13 13 13 13 12 12 12 12 12 12 12 12 12 12 12 12 12 12 12 11 11 11 11 11 10 10 10
14 13 13 13 13 13 13 13 13 12 12 12 12 12 12 12 12 12 12 12 11 11 11 11 11 11 11 11 11 11 11 10 10 10 10 10 10 9
13 13 13 12 12 12 12 12 12 12 12 11 11 11 11 11 11 10 10 10 10 10 10 10 10 10 10 10 10 10 10 10 10 9 9 9 9 9
12 12 12 12 12 11 11 11 11 11 11 11 10 10 10 10 10 9 9 9 9 9 9 9 9 9 8 9 9 9 9 9 9 9 9 8 8 8
11 11 11 11 11 11 11 10 10 10 10 10 9 9 9 9 9 9 9 9 9 9 8 8 8 8 8 8 8 8 8 8 8 8 8 8 8 8
11 10 10 10 10 10 9 9 9 9 9 9 8 8 8 8 8 8 8 8 8 8 8 8 8 7 7 7 7 7 7 7 7 7 7 7 7 7
9 9 9 9 9 9 8 8 8 8 8 8 7 7 7 7 7 7 7 7 7 7 7 7 7 7 7 7 7 7 7 7 7 6 6 6 6 6
9 9 9 9 8 8 8 8 7 7 7 7 7 7 7 7 7 6 6 6 6 6 6 6 6 6 6 6 6 6 6 6 6 6 6 6 6 6
8 8 8 8 8 7 7 7 7 6 6 6 6 6 6 6 6 6 6 6 5 5 5 5 5 5 5 6 6 5 5 5 5 5 5 5 5 5
8 8 7 7 7 6 6 6 6 6 5 5 5 5 5 5 5 5 5 5 5 5 5 5 5 4 4 4 5 5 5 5 5 5 5 4 4 5
7 7 7 6 6 6 6 5 5 5 5 5 5 5 4 4 4 4 4 4 4 4 4 4 4 4 4 4 4 5 5 5 4 4 4 4 4 4
7 6 6 6 5 5 5 5 5 5 4 4 4 4 4 4 4 4 4 4 4 4 4 4 4 4 4 4 4 4 4 4 4 4 4 4 4 4
6 6 5 5 5 5 5 4 4 4 4 4 3 3 3 3 3 3 3 3 3 3 3 3 3 3 4 4 4 4 4 4 4 4 4 4 4 3
5 5 5 5 4 4 4 4 4 3 3 3 3 3 3 3 3 3 3 3 3 3 3 3 3 3 3 3 4 4 4 4 4 4 4 4 4 3
Wind_Speed
4 4 4 4 3 2 1 1 1 2 3 2 2 3 5 7 12 13 11 17 19 18 17 17 16 15 15 14 14 14 13 13 13 13 13 13 13 13
3 3 2 3 3 2 2 2 2 2 2 1 2 1 2 4 10 9 7 12 17 18 18 17 16 16 15 14 14 14 13 13 13 13 12 12 12 13
4 3 3 3 3 3 2 2 2 2 3 3 1 0 2 1 3 4 5 7 9 15 17 17 17 16 15 15 15 14 13 13 12 12 11 12 12 12
4 3 3 3 3 2 3 3 2 2 2 3 2 1 1 2 3 3 4 5 6 10 15 17 17 16 16 15 14 13 13 12 11 11 11 11 11 11
4 3 2 2 2 2 2 3 3 3 2 2 3 2 1 1 1 2 2 2 5 6 10 13 15 16 16 15 14 13 12 11 11 11 11 10 11 11
3 2 2 1 2 2 3 3 3 3 2 2 2 2 1 1 1 1 2 2 3 4 3 6 10 15 15 14 13 12 11 10 10 10 10 10 10 11
2 2 2 2 3 1 1 1 2 2 2 1 1 1 2 2 2 2 2 3 2 2 2 2 1 2 5 7 8 9 9 9 9 9 10 10 11 12
2 2 2 4 4 4 3 3 2 0 0 1 1 2 2 3 3 3 3 3 3 3 3 4 2 1 1 2 4 6 8 8 8 8 9 10 11 12
2 2 2 2 3 2 2 3 4 4 3 2 2 2 2 4 3 3 3 3 3 4 3 4 2 2 2 2 2 3 5 7 7 8 9 10 12 13
3 3 3 4 3 2 2 3 3 4 3 3 4 3 3 3 3 3 4 4 3 2 3 3 3 3 3 2 3 3 5 7 7 8 9 11 12 13
5 5 5 5 6 4 3 3 4 4 7 8 7 5 5 6 6 4 5 4 4 2 3 3 3 3 3 2 2 3 5 6 8 9 10 11 12 12
7 8 11 9 8 7 4 4 4 3 3 3 3 3 3 5 7 5 4 4 4 2 4 4 4 4 4 3 3 4 5 6 8 9 10 11 11 8
6 6 7 10 11 10 8 6 4 2 2 2 2 3 3 4 5 5 4 2 3 2 4 4 4 4 3 4 4 4 4 4 5 6 9 10 10 7
7 6 6 10 11 10 8 7 7 5 2 3 3 4 4 3 3 3 4 3 2 3 4 3 2 3 4 5 5 4 5 6 5 3 5 7 8 9
8 9 8 8 8 7 8 8 6 4 4 4 4 4 3 2 2 2 3 4 5 5 3 2 1 2 3 4 5 5 5 5 4 3 4 4 5 6
7 7 6 5 5 5 5 5 5 6 5 5 4 4 4 3 3 3 4 4 4 3 4 6 5 3 4 5 5 5 5 4 4 4 4 4 7 7
3 3 3 4 4 5 5 5 6 6 5 5 5 4 4 5 4 4 4 4 5 5 5 4 8 9 6 5 4 4 5 5 5 4 5 5 4 4
5 5 6 6 6 6 5 6 6 6 6 5 5 5 5 5 5 5 5 5 5 6 5 5 5 6 6 5 4 5 5 6 6 6 5 5 5 4
6 6 6 6 6 6 6 6 6 5 5 5 5 5 5 5 4 5 5 5 5 5 5 5 5 6 7 8 6 8 6 6 6 5 5 5 5 5
6 6 6 6 6 6 6 6 5 5 5 5 5 5 5 5 5 5 5 5 5 6 6 5 4 5 5 7 7 8 9 5 5 5 6 6 4 4
7 7 6 6 6 6 5 5 5 5 5 4 5 5 5 5 5 5 5 6 5 5 6 6 5 7 6 5 6 5 5 9 7 5 5 5 6 5
7 7 6 6 6 5 5 5 5 5 6 6 6 5 5 5 6 6 6 6 5 6 7 6 6 5 5 6 7 7 7 7 9 10 7 6 4 4
6 5 5 6 6 5 5 6 7 7 7 7 6 6 6 5 5 5 5 6 6 7 7 7 6 6 6 6 6 6 8 8 6 5 4 7 8 10
Wind_Direction
229 224 237 267 264 271 287 281 266 269 264 236 192 182 167 161 169 185 195 203 208 213 219 224 228 233 237 240 244 247 251 255 258 261 263 265 264 264
227 224 215 272 282 261 256 283 284 260 265 271 238 189 154 173 175 190 209 206 213 217 220 223 227 231 235 239 242 245 248 251 254 258 260 262 265 267
221 212 208 250 298 311 296 271 268 269 264 274 266 145 136 133 151 217 221 206 214 217 219 220 224 228 233 238 241 244 247 250 254 257 259 262 265 267
219 227 220 227 232 275 303 303 289 272 259 275 292 321 187 206 200 223 239 236 228 222 220 221 225 229 233 237 241 243 245 248 252 257 262 265 266 268
204 209 211 235 232 247 261 285 303 296 283 262 273 270 246 253 218 240 252 267 272 249 227 223 227 232 237 238 238 239 241 246 252 258 262 266 270 272
189 177 169 200 228 245 257 263 272 285 294 286 283 287 285 279 249 258 284 295 296 300 274 230 229 234 239 240 238 237 239 245 252 258 262 265 270 274
163 153 158 121 87 77 285 311 293 286 276 271 287 318 334 352 354 341 325 319 297 329 326 303 249 235 237 232 230 233 237 244 251 257 262 268 272 276
169 154 139 110 108 109 98 71 62 44 344 35 20 15 2 2 0 349 345 333 316 349 351 319 334 305 262 169 190 217 232 237 246 257 267 272 275 276
153 151 157 108 108 118 115 99 69 60 76 82 53 22 10 7 357 343 338 326 301 309 317 303 330 335 10 106 161 210 219 229 240 252 267 277 279 280
98 102 102 64 50 52 85 85 77 62 66 91 80 61 49 17 354 330 309 300 285 340 352 316 334 335 344 322 243 242 241 244 251 259 268 277 284 286
84 71 78 74 46 43 76 86 81 75 76 87 93 87 63 34 19 10 1 352 342 15 5 342 338 333 322 308 278 269 271 264 263 265 268 276 284 294
87 71 63 64 50 48 67 79 77 53 55 74 74 58 55 44 40 35 20 1 348 358 19 0 346 348 327 335 346 318 298 289 281 278 277 280 288 288
96 83 70 69 64 58 62 71 71 51 43 52 76 70 60 55 49 40 29 9 352 345 352 354 341 344 327 319 321 327 326 311 302 297 291 289 291 280
91 87 85 82 73 64 63 56 46 42 52 60 63 55 52 45 31 17 10 356 319 278 301 323 323 335 326 320 317 322 327 328 333 327 326 324 311 300
96 102 99 89 83 75 64 53 47 46 45 51 52 48 44 34 360 356 351 334 311 309 341 346 314 321 315 308 312 317 323 325 338 345 349 338 322 315
99 105 101 82 74 67 60 54 57 52 44 42 36 32 21 20 16 9 4 354 347 346 353 356 351 334 312 304 305 313 323 323 331 342 345 327 323 329
90 108 96 83 76 70 65 58 54 44 38 34 30 25 23 21 18 13 7 357 0 358 355 352 343 329 308 304 314 324 326 328 335 346 334 323 321 333
63 74 72 65 63 63 63 62 57 46 30 28 30 25 19 13 10 9 9 8 1 354 347 345 345 341 335 336 2 351 343 335 331 328 323 322 320 335
71 73 70 65 59 59 57 55 56 49 31 26 29 25 14 5 9 10 11 8 357 343 337 349 360 360 345 334 332 337 322 313 316 320 324 321 312 313
70 71 70 67 59 53 53 50 48 47 34 22 29 22 11 4 6 4 8 8 346 335 338 350 0 353 326 308 302 304 309 309 315 312 310 307 300 300
69 66 63 63 60 55 51 45 45 47 32 18 28 15 4 359 3 359 354 350 339 337 341 336 328 310 290 292 303 309 314 322 311 289 297 305 309 310
64 64 61 60 55 47 44 39 41 42 31 22 17 7 3 359 355 351 350 348 343 342 338 327 321 318 315 317 318 318 321 324 320 311 291 280 291 308
65 61 63 63 57 44 38 38 40 38 27 16 9 360 355 351 344 345 349 348 342 339 336 332 331 327 325 322 320 320 327 330 327 326 314 300 286 278
Height
1564 1565 1566 1568 1569 1569 1570 1571 1572 1572 1572 1572 1573 1573 1573 1574 1574 1574 1574 1574 1574 1574 1575 1575 1575 1575 1575 1575 1575 1575 1575 1576 1576 1575 1575 1575 1575 1575
1561 1563 1564 1565 1566 1567 1568 1568 1569 1570 1570 1570 1571 1571 1571 1571 1571 1572 1572 1572 1571 1571 1571 1571 1572 1572 1572 1572 1572 1572 1572 1571 1571 1571 1571 1571 1570 1570
1559 1560 1561 1562 1562 1563 1565 1565 1566 1567 1567 1568 1569 1569 1569 1569 1569 1569 1569 1569 1568 1568 1568 1568 1568 1568 1568 1568 1568 1568 1567 1567 1567 1566 1566 1566 1565 1565
1555 1556 1557 1559 1559 1560 1561 1562 1563 1564 1565 1565 1565 1566 1566 1566 1566 1566 1566 1565 1565 1565 1565 1564 1564 1564 1564 1564 1563 1563 1562 1562 1562 1561 1561 1561 1560 1559
1552 1553 1554 1555 1556 1557 1558 1558 1559 1560 1561 1561 1562 1562 1562 1563 1563 1563 1562 1562 1561 1561 1561 1560 1560 1560 1560 1559 1559 1558 1558 1557 1557 1556 1556 1555 1555 1554
1549 1550 1551 1552 1553 1553 1554 1555 1555 1556 1557 1558 1558 1558 1559 1559 1559 1559 1559 1558 1558 1558 1557 1556 1556 1556 1555 1555 1554 1554 1553 1552 1552 1551 1551 1550 1549 1548
1546 1547 1548 1549 1550 1550 1551 1551 1552 1552 1553 1554 1554 1554 1555 1555 1555 1555 1555 1555 1554 1554 1553 1553 1552 1551 1551 1550 1549 1549 1548 1548 1547 1546 1545 1544 1543 1542
1543 1544 1545 1546 1546 1547 1548 1548 1549 1549 1550 1550 1550 1551 1551 1551 1552 1552 1551 1551 1550 1551 1549 1549 1549 1548 1547 1546 1545 1544 1543 1543 1542 1541 1540 1539 1537 1536
1540 1541 1542 1543 1543 1544 1545 1545 1546 1546 1547 1547 1547 1548 1549 1549 1548 1548 1548 1548 1547 1547 1546 1545 1545 1544 1543 1542 1541 1540 1539 1538 1537 1536 1535 1534 1532 1531
1537 1538 1539 1540 1540 1542 1542 1542 1543 1543 1543 1544 1545 1545 1546 1546 1546 1546 1545 1545 1545 1544 1543 1542 1542 1541 1539 1538 1537 1536 1535 1534 1533 1531 1530 1529 1527 1525
1534 1535 1536 1537 1538 1539 1539 1540 1540 1541 1541 1542 1543 1543 1544 1544 1543 1543 1542 1542 1541 1541 1540 1540 1538 1537 1536 1535 1534 1533 1532 1530 1529 1528 1526 1524 1522 1520
1532 1533 1534 1535 1536 1536 1537 1537 1538 1539 1540 1540 1541 1541 1541 1541 1541 1541 1541 1540 1539 1539 1538 1537 1536 1534 1533 1532 1532 1530 1529 1527 1526 1524 1522 1521 1519 1516
1531 1531 1532 1533 1534 1535 1535 1536 1537 1538 1538 1539 1539 1540 1540 1540 1540 1540 1539 1538 1538 1537 1536 1535 1534 1532 1531 1530 1528 1527 1526 1524 1522 1520 1519 1517 1515 1513
1529 1530 1531 1532 1533 1534 1535 1535 1536 1537 1538 1538 1539 1539 1539 1539 1539 1539 1538 1537 1536 1535 1534 1533 1532 1530 1529 1527 1525 1524 1522 1521 1519 1517 1515 1513 1511 1509
1530 1531 1532 1533 1533 1534 1535 1535 1536 1537 1537 1538 1539 1539 1539 1539 1538 1537 1536 1536 1535 1534 1533 1532 1531 1529 1527 1525 1523 1521 1520 1518 1516 1514 1512 1509 1507 1505
1531 1532 1533 1534 1535 1535 1536 1537 1537 1537 1538 1538 1539 1539 1538 1538 1537 1537 1535 1534 1533 1533 1532 1530 1529 1527 1525 1523 1522 1519 1518 1516 1513 1511 1508 1506 1504 1501
1533 1534 1535 1537 1537 1537 1538 1539 1539 1539 1539 1539 1540 1539 1539 1538 1538 1537 1535 1534 1532 1531 1530 1528 1526 1525 1523 1522 1519 1517 1515 1513 1511 1508 1505 1502 1500 1498
1536 1536 1538 1538 1539 1540 1540 1540 1540 1540 1540 1540 1540 1539 1538 1538 1537 1536 1535 1533 1532 1530 1529 1527 1525 1522 1521 1520 1519 1515 1513 1510 1507 1505 1502 1499 1496 1494
1538 1539 1540 1541 1541 1542 1542 1542 1542 1542 1541 1541 1540 1540 1539 1538 1537 1536 1534 1533 1531 1530 1528 1526 1524 1521 1519 1517 1515 1514 1510 1507 1505 1502 1500 1497 1493 1491
1540 1542 1543 1543 1544 1544 1544 1544 1543 1543 1542 1542 1541 1541 1540 1539 1537 1536 1535 1533 1531 1529 1528 1526 1524 1521 1519 1516 1513 1511 1509 1506 1502 1499 1496 1493 1490 1488
1543 1544 1545 1545 1545 1545 1545 1545 1545 1544 1543 1543 1542 1541 1540 1539 1538 1536 1535 1533 1531 1529 1527 1525 1523 1520 1517 1515 1512 1509 1507 1504 1501 1497 1493 1490 1487 1484
1546 1546 1547 1547 1547 1547 1547 1546 1546 1545 1544 1543 1542 1541 1540 1539 1538 1536 1535 1533 1531 1529 1526 1524 1521 1518 1516 1514 1510 1507 1504 1501 1498 1495 1492 1489 1486 1481
1548 1549 1549 1548 1548 1548 1547 1547 1546 1545 1544 1543 1542 1541 1540 1539 1538 1536 1534 1532 1530 1528 1525 1522 1519 1517 1514 1512 1509 1506 1502 1499 1495 1492 1490 1487 1484 1481